This is the latest recevied weather packets stored in our database for station/object KC5DAQ-26. If no packets are shown the sender has not sent any weather packets the latest 10 day(s).
| Time | Temp. | Humidity | Pressure | Rain* | Wind** | Luminosity | Snow |
|---|---|---|---|---|---|---|---|
| 1788043082 | 35° C | 58% | 1017.2 hPa | 0 mm | - | 387 W/m² | - |
| 1788043024 | 35° C | 59% | 1017.2 hPa | 0 mm | - | 399 W/m² | - |
| 1788042963 | 35° C | 60% | 1017.2 hPa | 0 mm | - | 410 W/m² | - |
| 1788042905 | 35° C | 59% | 1017.3 hPa | 0 mm | - | 410 W/m² | - |
| 1788042844 | 35° C | 59% | 1017.2 hPa | 0 mm | - | 410 W/m² | - |
| 1788042783 | 35° C | 59% | 1017.3 hPa | 0 mm | - | 410 W/m² | - |
| 1788042722 | 35° C | 60% | 1017.3 hPa | 0 mm | - | 412 W/m² | - |
| 1788042664 | 35° C | 59% | 1017.2 hPa | 0 mm | - | 410 W/m² | - |
| 1788042604 | 35° C | 62% | 1017.3 hPa | 0 mm | - | 408 W/m² | - |
| 1788042544 | 35° C | 59% | 1017.2 hPa | 0 mm | - | 406 W/m² | - |
| 1788042482 | 35° C | 58% | 1017.3 hPa | 0 mm | - | 406 W/m² | - |
| 1788042423 | 35° C | 58% | 1017.3 hPa | 0 mm | - | 401 W/m² | - |
| 1788042363 | 35° C | 59% | 1017.3 hPa | 0 mm | - | 394 W/m² | - |
| 1788042303 | 35° C | 58% | 1017.2 hPa | 0 mm | - | 389 W/m² | - |
| 1788042244 | 35° C | 59% | 1017.2 hPa | 0 mm | - | 417 W/m² | - |
| 1788042183 | 35° C | 58% | 1017.2 hPa | 0 mm | - | 417 W/m² | - |
| 1788042122 | 35° C | 57% | 1017.2 hPa | 0 mm | - | 427 W/m² | - |
| 1788042064 | 35.56° C | 57% | 1017.2 hPa | 0 mm | - | 429 W/m² | - |
| 1788042004 | 35.56° C | 57% | 1017.2 hPa | 0 mm | - | 434 W/m² | - |
| 1788041944 | 35.56° C | 59% | 1017.2 hPa | 0 mm | - | 438 W/m² | - |
| 1788041882 | 35.56° C | 56% | 1017.2 hPa | 0 mm | - | 447 W/m² | - |
| 1788041824 | 35.56° C | 57% | 1017.2 hPa | 0 mm | - | 450 W/m² | - |
| 1788041763 | 35.56° C | 57% | 1017.3 hPa | 0 mm | - | 457 W/m² | - |
| 1788041703 | 35.56° C | 55% | 1017.3 hPa | 0 mm | - | 462 W/m² | - |
| 1788041641 | 35.56° C | 55% | 1017.2 hPa | 0 mm | - | 469 W/m² | - |
* Rain latest hour (hover to see other rain measurements)
** Current wind speed in m/s (hover to see current wind gust speed)